Weather History for Midlothian, TX

Change the Weather History Date:

Sunday, March 17, 2013

  Actual Average (KRBD) Record (KRBD)
Temperature  
Mean Temperature 65 °F -  
Max Temperature 76 °F 64 °F 82 °F (2009)
Min Temperature 55 °F 46 °F 33 °F (2005)
Growing Degree Days 15 (Base 50)    
Moisture  
Dew Point 55 °F    
Average Humidity 66    
Maximum Humidity 84    
Minimum Humidity 43    
Precipitation  
Precipitation 0.00 in - - ()
Sea Level Pressure  
Sea Level Pressure 29.74 in    
Wind  
Wind Speed 13 mph (SSW)    
Max Wind Speed 22 mph    
Max Gust Speed 31 mph    
Visibility 10 miles    
Events      
Averages and records for this station are not official NWS values.
T = Trace of Precipitation, MM = Missing Value Source: NWS Daily Summary

Daily Weather History Graph

Daily Weather History Graph

Search for Another Location

Airport:

Trip Planner

Search our weather history database for the weather conditions in past years. The results will help you decide how hot, cold, wet, or windy it might be!

Date:

Astronomy

Mar. 17, 2013 Rise Set
Actual Time 7:34 AM CDT 7:37 PM CDT
Civil Twilight 7:10 AM CDT 8:01 PM CDT
Nautical Twilight 6:41 AM CDT 8:30 PM CDT
Astronomical Twilight 6:13 AM CDT 8:59 PM CDT
Moon 11:06 AM CDT (3/17) 12:28 AM CDT (3/17)
Length of Visible Light 12h 51m
Length of Day
12h 02m
Waxing Crescent, 31% of the Moon is Illuminated
Mar 17
Waxing Crescent
Mar 19
First Quarter
Mar 27
Full
Apr 2
Last Quarter
Apr 10
New

Hourly Weather History & Observations

Time (CDT) Temp. Dew Point Humidity Pressure Visibility Wind Dir Wind Speed Gust Speed Precip Events Conditions
12:15 AM 66.2 °F 57.2 °F 73% 29.76 in 10.0 mi South 20.7 mph 27.6 mph N/A   Clear
12:35 AM 65.7 °F 57.4 °F 75% 29.75 in 10.0 mi South 21.9 mph 28.8 mph N/A   Clear
12:55 AM 65.3 °F 57.7 °F 76% 29.76 in 10.0 mi South 19.6 mph 25.3 mph N/A   Mostly Cloudy
1:15 AM 65.8 °F 58.1 °F 76% 29.75 in 10.0 mi South 18.4 mph 27.6 mph N/A   Overcast
1:35 AM 66.2 °F 58.1 °F 75% 29.76 in 10.0 mi South 21.9 mph 31.1 mph N/A   Overcast
1:55 AM 66.2 °F 58.1 °F 75% 29.75 in 10.0 mi South 20.7 mph 27.6 mph N/A   Overcast
2:15 AM 66.2 °F 58.1 °F 75% 29.76 in 10.0 mi South 19.6 mph 24.2 mph N/A   Overcast
2:35 AM 66.2 °F 58.1 °F 75% 29.76 in 10.0 mi South 17.3 mph - N/A   Overcast
2:55 AM 65.3 °F 58.1 °F 77% 29.75 in 10.0 mi South 15.0 mph 24.2 mph N/A   Overcast
3:15 AM 65.3 °F 58.1 °F 77% 29.75 in 10.0 mi South 15.0 mph 21.9 mph N/A   Overcast
3:35 AM 64.6 °F 57.9 °F 79% 29.75 in 10.0 mi South 12.7 mph 23.0 mph N/A   Scattered Clouds
3:55 AM 64.4 °F 57.9 °F 79% 29.75 in 10.0 mi South 15.0 mph 20.7 mph N/A   Clear
4:15 AM 64.0 °F 58.1 °F 81% 29.75 in 10.0 mi South 10.4 mph 18.4 mph N/A   Clear
4:35 AM 63.7 °F 58.1 °F 82% 29.75 in 10.0 mi South 12.7 mph - N/A   Mostly Cloudy
4:55 AM 63.5 °F 58.1 °F 83% 29.74 in 10.0 mi South 10.4 mph - N/A   Overcast
5:15 AM 63.9 °F 58.5 °F 83% 29.75 in 10.0 mi South 12.7 mph - N/A   Overcast
5:35 AM 63.9 °F 58.6 °F 83% 29.75 in 10.0 mi South 8.1 mph - N/A   Overcast
5:55 AM 63.9 °F 59.0 °F 84% 29.76 in 10.0 mi South 9.2 mph - N/A   Overcast
6:15 AM 64.0 °F 59.0 °F 84% 29.76 in 10.0 mi South 8.1 mph - N/A   Overcast
6:35 AM 64.0 °F 59.0 °F 84% 29.77 in 10.0 mi South 5.8 mph - N/A   Overcast
6:55 AM 64.0 °F 58.8 °F 83% 29.77 in 10.0 mi SSE 8.1 mph - N/A   Overcast
7:15 AM 64.0 °F 58.6 °F 83% 29.77 in 10.0 mi SSE 10.4 mph - N/A   Overcast
7:35 AM 64.0 °F 58.5 °F 82% 29.78 in 10.0 mi SSE 9.2 mph - N/A   Overcast
7:55 AM 64.4 °F 58.5 °F 81% 29.78 in 10.0 mi SSE 8.1 mph - N/A   Overcast
8:15 AM 64.6 °F 58.1 °F 79% 29.78 in 10.0 mi South 10.4 mph - N/A   Overcast
8:35 AM 65.3 °F 58.1 °F 77% 29.79 in 10.0 mi South 9.2 mph - N/A   Overcast
8:55 AM 65.5 °F 58.1 °F 77% 29.78 in 10.0 mi SSE 12.7 mph - N/A   Overcast
9:15 AM 65.7 °F 58.1 °F 77% 29.79 in 10.0 mi South 11.5 mph - N/A   Overcast
9:35 AM 66.2 °F 58.1 °F 75% 29.79 in 10.0 mi SSE 10.4 mph - N/A   Overcast
9:55 AM 66.2 °F 58.1 °F 75% 29.80 in 10.0 mi SSE 11.5 mph 17.3 mph N/A   Overcast
10:15 AM 66.2 °F 58.1 °F 75% 29.80 in 10.0 mi South 8.1 mph - N/A   Overcast
10:35 AM 66.4 °F 58.8 °F 77% 29.81 in 10.0 mi South 10.4 mph - N/A   Overcast
10:55 AM 65.5 °F 55.8 °F 71% 29.81 in 10.0 mi West 4.6 mph - N/A   Overcast
11:15 AM 66.9 °F 56.5 °F 69% 29.80 in 10.0 mi SSW 5.8 mph - N/A   Overcast
11:35 AM 68.4 °F 57.0 °F 67% 29.79 in 10.0 mi South 8.1 mph - N/A   Mostly Cloudy
11:55 AM 70.0 °F 56.5 °F 62% 29.78 in 10.0 mi South 10.4 mph - N/A   Overcast
12:15 PM 71.2 °F 55.8 °F 58% 29.78 in 10.0 mi South 13.8 mph - N/A   Overcast
12:35 PM 71.8 °F 55.6 °F 57% 29.78 in 10.0 mi SSW 13.8 mph 18.4 mph N/A   Overcast
12:55 PM 72.9 °F 55.4 °F 54% 29.77 in 10.0 mi SSW 13.8 mph 19.6 mph N/A   Mostly Cloudy
1:15 PM 73.6 °F 55.4 °F 53% 29.76 in 10.0 mi SW 12.7 mph 19.6 mph N/A   Mostly Cloudy
1:35 PM 73.4 °F 55.2 °F 53% 29.76 in 10.0 mi SW 12.7 mph 18.4 mph N/A   Overcast
1:55 PM 73.9 °F 55.2 °F 52% 29.75 in 10.0 mi SSW 15.0 mph 21.9 mph N/A   Overcast
2:15 PM 73.6 °F 55.2 °F 53% 29.74 in 10.0 mi South 15.0 mph - N/A   Overcast
2:35 PM 73.9 °F 54.9 °F 51% 29.73 in 10.0 mi SW 11.5 mph 17.3 mph N/A   Overcast
2:55 PM 73.6 °F 54.0 °F 50% 29.72 in 10.0 mi WSW 11.5 mph 16.1 mph N/A   Overcast
3:15 PM 73.6 °F 53.8 °F 50% 29.71 in 10.0 mi WSW 11.5 mph 18.4 mph N/A   Mostly Cloudy
3:35 PM 73.9 °F 53.1 °F 48% 29.71 in 10.0 mi SW 10.4 mph - N/A   Mostly Cloudy
3:55 PM 75.6 °F 52.7 °F 45% 29.70 in 10.0 mi SW 6.9 mph - N/A   Mostly Cloudy
4:15 PM 75.7 °F 52.2 °F 44% 29.69 in 10.0 mi WSW 9.2 mph 18.4 mph N/A   Scattered Clouds
4:35 PM 75.4 °F 51.8 °F 44% 29.69 in 10.0 mi WSW 6.9 mph 17.3 mph N/A   Scattered Clouds
4:55 PM 75.4 °F 51.8 °F 44% 29.68 in 10.0 mi WSW 10.4 mph 16.1 mph N/A   Clear
5:15 PM 75.6 °F 51.6 °F 43% 29.68 in 10.0 mi West 10.4 mph - N/A   Scattered Clouds
5:35 PM 73.9 °F 50.7 °F 44% 29.68 in 10.0 mi WNW 6.9 mph - N/A   Scattered Clouds
5:55 PM 73.0 °F 50.5 °F 45% 29.69 in 10.0 mi WNW 8.1 mph - N/A   Scattered Clouds
6:15 PM 73.4 °F 50.2 °F 44% 29.69 in 10.0 mi West 10.4 mph - N/A   Clear
6:35 PM 72.5 °F 50.4 °F 46% 29.69 in 10.0 mi WNW 6.9 mph - N/A   Clear
6:55 PM 71.8 °F 50.0 °F 46% 29.69 in 10.0 mi WNW 5.8 mph - N/A   Clear
7:15 PM 70.3 °F 50.0 °F 48% 29.69 in 10.0 mi WNW 4.6 mph - N/A   Scattered Clouds
7:35 PM 68.4 °F 50.2 °F 52% 29.70 in 10.0 mi NW 5.8 mph - N/A   Clear
7:55 PM 67.1 °F 49.8 °F 54% 29.70 in 10.0 mi NW 4.6 mph - N/A   Clear
8:15 PM 65.1 °F 49.6 °F 57% 29.70 in 10.0 mi NW 4.6 mph - N/A   Clear
8:35 PM 64.0 °F 49.5 °F 59% 29.70 in 10.0 mi Calm Calm - N/A   Clear
8:55 PM 63.9 °F 49.3 °F 59% 29.70 in 10.0 mi Calm Calm - N/A   Clear
9:15 PM 61.5 °F 49.1 °F 64% 29.71 in 10.0 mi Calm Calm - N/A   Clear
9:35 PM 61.5 °F 49.6 °F 65% 29.71 in 10.0 mi Calm Calm - N/A   Clear
9:55 PM 62.6 °F 49.5 °F 62% 29.72 in 10.0 mi Calm Calm - N/A   Clear
10:15 PM 59.9 °F 49.1 °F 67% 29.73 in 10.0 mi NNW 3.5 mph - N/A   Clear
10:35 PM 57.4 °F 49.3 °F 74% 29.74 in 10.0 mi Calm Calm - N/A   Scattered Clouds
10:55 PM 57.4 °F 49.1 °F 74% 29.74 in 10.0 mi Calm Calm - N/A   Scattered Clouds
11:15 PM 57.0 °F 49.1 °F 75% 29.74 in 10.0 mi NW 4.6 mph - N/A   Clear
11:35 PM 55.9 °F 49.5 °F 79% 29.73 in 10.0 mi Calm Calm - N/A   Clear
11:55 PM 55.9 °F 48.9 °F 77% 29.73 in 10.0 mi North 3.5 mph - N/A   Clear